Location: Stara Lesna
(49.1528°N, 20.2911°E)
Time: 04:40:40
(UTC+02:00)

CZ-2D R/B - Pass Details

Date: 21 September 2019
Orbit: 791 x 846 km, 98.6° (Epoch: 16 October)

Event Time Altitude Azimuth Distance (km) Brightness Sun altitude
Rises 04:21:38 0° 2° (N) 3,339 5.7 -20.0°
Reaches altitude 10° 04:24:54 10° 342° (NNW) 2,393 4.6 -19.5°
Maximum altitude 04:27:53 16° 307° (NW) 2,018 3.9 -19.0°
Enters shadow 04:28:18 15° 301° (WNW) 2,024 3.9 -19.0°
